This is the latest recevied weather packets stored in our database for station/object KD8BMB. If no packets are shown the sender has not sent any weather packets the latest 10 day(s).
| Time | Temp. | Humidity | Pressure | Rain* | Wind** | Luminosity | Snow |
|---|---|---|---|---|---|---|---|
| 1778067481 | 3.89° C | 85% | 1011.5 hPa | 0 mm | - | 51 W/m² | - |
| 1778067178 | 3.89° C | 85% | 1011.5 hPa | 0 mm | - | 59 W/m² | - |
| 1778066875 | 3.89° C | 86% | 1011.3 hPa | 0 mm | - | 42 W/m² | - |
| 1778066572 | 3.89° C | 86% | 1011.4 hPa | 0 mm | - | 42 W/m² | - |
| 1778066269 | 3.33° C | 87% | 1011.3 hPa | 0 mm | - | 39 W/m² | - |
| 1778065967 | 3.33° C | 88% | 1011.1 hPa | 0 mm | - | 36 W/m² | - |
| 1778065664 | 2.78° C | 90% | 1010.7 hPa | 0 mm | - | 27 W/m² | - |
| 1778065362 | 2.78° C | 91% | 1011.1 hPa | 0 mm | - | 23 W/m² | - |
| 1778065058 | 2.22° C | 92% | 1010.8 hPa | 0 mm | - | 19 W/m² | - |
| 1778064755 | 2.22° C | 92% | 1010.8 hPa | 0 mm | - | 16 W/m² | - |
| 1778064453 | 2.22° C | 92% | 1010.8 hPa | 0 mm | - | 13 W/m² | - |
| 1778064150 | 2.22° C | 91% | 1010.7 hPa | 0 mm | - | 10 W/m² | - |
| 1778063847 | 2.22° C | 90% | 1010.4 hPa | 0 mm | - | 9 W/m² | - |
| 1778063545 | 2.78° C | 89% | 1010.4 hPa | 0 mm | - | 5 W/m² | - |
| 1778063242 | 2.78° C | 89% | 1010.2 hPa | 0 mm | - | 3 W/m² | - |
| 1778062940 | 2.78° C | 88% | 1010.2 hPa | 0 mm | - | 0 W/m² | - |
| 1778062636 | 2.78° C | 87% | 1009.9 hPa | 0 mm | - | 0 W/m² | - |
| 1778062333 | 3.33° C | 86% | 1010 hPa | 0 mm | - | 0 W/m² | - |
| 1778062031 | 3.33° C | 86% | 1009.8 hPa | 0 mm | - | 0 W/m² | - |
| 1778061729 | 3.33° C | 85% | 1009.6 hPa | 0 mm | - | 0 W/m² | - |
| 1778061427 | 3.89° C | 85% | 1010 hPa | 0 mm | - | 0 W/m² | - |
| 1778061124 | 3.89° C | 84% | 1009.5 hPa | 0 mm | - | 0 W/m² | - |
| 1778060821 | 3.89° C | 83% | 1009.3 hPa | 0 mm | - | 0 W/m² | - |
| 1778060519 | 3.89° C | 83% | 1009.5 hPa | 0 mm | - | 0 W/m² | - |
| 1778060218 | 3.89° C | 83% | 1009.5 hPa | 0 mm | - | 0 W/m² | - |
* Rain latest hour (hover to see other rain measurements)
** Current wind speed in m/s (hover to see current wind gust speed)